DateTimeUTC,F1_A11,F1_S11,BsB_S11,BsG_S11,BsR_S11,BbsB_S11,BbsG_S11,BbsR_S11,BaB_A11,BaG_A11,BaR_A11,Tu_S11,T_S11,Uu_S11,U_S11,P_S11,T1_A11
2021-02-06T16:00:00Z,00000200,21000000,,,,,,,0000.17,-000.37,-000.01,15.7,23.0,,00.0,0653.6,30.8
2021-02-06T16:01:00Z,00000200,21000000,,,,,,,-000.24,0000.30,-000.14,15.7,23.0,,00.0,0653.6,30.9
2021-02-06T16:02:00Z,00000200,21000000,,,,,,,-000.16,-000.14,-000.42,15.6,23.0,,00.0,0653.5,30.9
2021-02-06T16:03:00Z,00000200,61000000,,,,,,,0000.50,0000.19,0000.16,15.6,23.0,,00.0,0653.5,30.9
2021-02-06T16:04:00Z,00000200,41000000,0000.42,-000.15,-000.00,0000.08,0000.25,-000.17,-000.44,0000.22,0000.16,15.9,22.9,,00.0,0654.5,30.9
2021-02-06T16:05:00Z,00000200,01000000,0000.75,-000.37,0000.07,0000.17,0000.10,-000.07,0000.12,-000.13,-000.12,16.0,22.9,,00.0,0654.6,30.9
2021-02-06T16:06:00Z,00000200,01000000,0000.41,-000.14,-000.18,0000.83,0000.13,0000.03,-000.03,0000.29,0000.07,16.0,22.9,,00.0,0654.6,30.9
2021-02-06T16:07:00Z,00000200,01000000,-000.24,-000.37,-000.21,-000.02,0000.21,-000.00,0000.66,-000.05,0000.10,16.0,22.9,,00.0,0654.6,30.9
2021-02-06T16:08:00Z,00000200,01000000,0000.45,-000.24,0000.07,0000.16,0000.18,0000.28,0000.09,0000.19,0000.03,15.9,22.8,,00.0,0654.6,30.9
2021-02-06T16:09:00Z,00000200,01000000,-000.73,-000.31,0000.27,0000.55,-000.06,-000.08,0000.01,-000.05,0000.12,15.9,22.8,,00.0,0654.6,30.9
2021-02-06T16:10:00Z,00000200,01000000,0000.34,0000.14,0000.14,0000.21,0000.13,-000.13,-000.34,-000.40,0000.08,15.8,22.8,,00.0,0654.7,30.9
2021-02-06T16:11:00Z,00000200,01000000,-000.04,-000.19,0000.18,0000.41,0000.01,-000.14,0000.10,0000.53,-000.11,15.8,22.8,,00.0,0654.7,30.9
2021-02-06T16:12:00Z,00000200,01000000,0000.24,-000.20,-000.15,0000.54,0000.01,0000.05,0000.13,-000.21,-000.15,15.8,22.8,,00.0,0654.7,30.9
2021-02-06T16:13:00Z,00000200,01000000,0000.34,-000.14,0000.07,0000.25,-000.15,0000.10,0000.19,0000.33,0000.47,15.7,22.7,,00.0,0654.7,30.9
2021-02-06T16:14:00Z,00000200,01000000,0000.30,0000.17,-000.19,0000.80,-000.21,0000.07,-000.06,0000.35,-000.55,15.7,22.7,,00.0,0654.7,30.9
2021-02-06T16:15:00Z,00000200,01000000,-000.30,-000.02,0000.05,0001.01,0000.18,0000.10,0000.19,-000.33,0000.50,15.7,22.7,,00.0,0654.7,30.8
2021-02-06T16:16:00Z,00000200,01000000,0000.64,-000.26,0000.07,0000.49,-000.17,0000.07,0000.37,0000.49,0000.49,15.6,22.7,,00.0,0654.6,30.8
2021-02-06T16:17:00Z,00000200,01000000,0000.95,-000.12,0000.22,0000.74,0000.23,0000.08,0000.11,-000.33,-000.46,15.7,22.6,,00.0,0654.6,30.9
2021-02-06T16:18:00Z,00000200,01000000,0000.29,0000.16,-000.10,0000.40,0000.33,0000.10,0000.39,0000.53,0000.53,15.7,22.7,,00.0,0654.6,30.9
2021-02-06T16:19:00Z,00000200,01000000,0000.19,0000.08,0000.19,0000.11,0000.04,0000.03,-000.32,-000.00,-000.20,15.7,22.7,,00.0,0654.6,30.9
2021-02-06T16:20:00Z,00000200,01000000,-000.03,-000.16,0000.28,0000.38,0000.01,-000.13,-000.03,0000.18,0000.10,15.8,22.7,,00.0,0654.6,30.9
2021-02-06T16:21:00Z,00000200,01000000,0001.00,-000.15,-000.06,-000.04,0000.10,-000.01,0000.30,-000.31,0000.30,15.8,22.7,,00.0,0654.6,30.9
2021-02-06T16:22:00Z,00000200,01000000,0000.63,-000.22,-000.03,0000.32,-000.16,0000.01,-000.33,-000.05,-000.39,15.8,22.8,,00.0,0654.6,30.9
2021-02-06T16:23:00Z,00000200,01000000,0000.47,-000.01,-000.05,0000.21,0000.15,0000.11,0000.09,0000.10,0000.19,15.9,22.8,,00.0,0654.6,30.9
2021-02-06T16:24:00Z,00000200,01000000,0000.38,-000.07,0000.03,-000.38,-000.34,-000.14,0000.32,0000.01,0000.26,16.0,22.8,,00.0,0654.7,30.9
2021-02-06T16:25:00Z,00000200,01000000,0000.39,-000.35,0000.07,-000.04,0000.06,0000.06,-000.18,0000.56,0000.06,16.0,22.8,,00.0,0654.7,30.9
2021-02-06T16:26:00Z,00000200,01000000,0000.51,-000.09,-000.01,0000.34,0000.29,0000.10,-000.04,-000.19,-000.16,16.0,22.8,,00.0,0654.7,30.9
2021-02-06T16:27:00Z,00000200,01000000,0001.04,-000.44,0000.13,0000.56,-000.07,0000.13,0000.38,-000.06,0000.15,16.0,22.8,,00.0,0654.8,30.9
2021-02-06T16:28:00Z,00000200,01000000,0000.34,-000.18,-000.00,0000.14,0000.18,0000.04,-000.05,-000.02,-000.44,16.0,22.9,,00.0,0654.8,30.9
2021-02-06T16:29:00Z,00000200,01000000,0000.47,-000.12,-000.15,0000.49,-000.06,-000.03,-000.50,-000.27,0000.14,16.0,22.8,,00.0,0654.8,30.9
2021-02-06T16:30:00Z,00000200,01000000,0000.10,-000.45,0000.12,-000.57,0000.11,-000.17,0000.67,0000.40,0000.22,15.9,22.8,,00.0,0654.8,30.9
2021-02-06T16:31:00Z,00000200,01000000,0000.16,-000.21,-000.23,0000.25,-000.05,-000.18,-000.09,0000.42,0000.02,16.0,22.8,,00.0,0654.8,30.9
2021-02-06T16:32:00Z,00000200,01000000,0000.74,-000.21,0000.32,0000.49,0000.01,0000.04,-000.12,-000.20,-000.15,16.0,22.8,,00.0,0654.8,30.9
2021-02-06T16:33:00Z,00000200,01000000,0000.04,-000.17,-000.31,0000.35,-000.04,-000.24,0000.08,-000.14,0000.34,16.0,22.8,,00.0,0654.8,31.0
2021-02-06T16:34:00Z,00000200,01000000,0000.68,0000.11,0000.50,-000.34,0000.25,0000.13,0000.38,0000.48,-000.15,16.1,22.9,,00.0,0654.8,31.0
2021-02-06T16:35:00Z,00000200,01000000,0000.34,-000.35,0000.34,-000.39,-000.12,-000.05,-000.35,0000.04,0000.36,16.1,22.9,,00.0,0654.8,31.0
2021-02-06T16:36:00Z,00000200,01000000,0000.03,-000.43,-000.13,0000.89,0000.10,-000.15,0000.34,0000.05,0000.20,16.2,22.9,,00.0,0654.8,31.0
2021-02-06T16:37:00Z,00000200,01000000,0000.80,-000.22,0000.28,0000.48,0000.28,0000.00,0000.19,0000.74,-000.06,16.2,23.0,,00.0,0654.9,31.0
2021-02-06T16:38:00Z,00000200,01000000,0000.14,0000.02,0000.23,0000.35,0000.03,-000.06,-000.20,-000.62,0000.10,16.2,23.0,,00.0,0654.9,31.0
2021-02-06T16:39:00Z,00000200,01000000,-000.13,-000.18,0000.03,0000.37,0000.04,-000.20,0000.40,-000.12,-000.14,16.2,23.0,,00.0,0654.9,31.0
2021-02-06T16:40:00Z,00000200,01000000,-000.04,-000.08,0000.10,-000.07,0000.03,-000.13,0000.07,0000.60,0000.31,16.2,23.0,,00.0,0654.9,30.9
2021-02-06T16:41:00Z,00000200,01000000,0000.71,-000.55,-000.06,0000.09,-000.19,-000.00,0000.38,-000.08,0000.05,16.1,22.9,,00.0,0654.9,30.9
2021-02-06T16:42:00Z,00000200,01000000,0000.73,-000.02,0000.03,0000.50,-000.11,0000.17,-000.12,-000.14,-000.38,16.0,22.9,,00.0,0655.0,30.9
2021-02-06T16:43:00Z,00000200,01000000,0000.37,-000.01,0000.16,0000.05,0000.11,-000.08,0000.22,0000.17,0000.40,16.0,22.9,,00.0,0655.0,30.9
2021-02-06T16:44:00Z,00000200,01000000,0000.55,-000.45,0000.03,0000.12,0000.11,0000.38,-000.50,-000.32,-000.06,15.9,22.8,,00.0,0655.0,30.9
2021-02-06T16:45:00Z,00000200,01000000,0000.41,0000.09,0000.17,-000.09,0000.13,0000.20,0000.58,0000.47,0000.06,15.9,22.8,,00.0,0654.9,30.9
2021-02-06T16:46:00Z,00000200,01000000,0000.15,-000.24,0000.11,0000.13,-000.10,0000.04,0000.36,0000.26,0000.07,15.9,22.8,,00.0,0654.9,30.9
2021-02-06T16:47:00Z,00000200,01000000,0000.44,-000.00,-000.15,-000.45,0000.11,-000.00,-000.28,0000.09,0000.10,15.8,22.8,,00.0,0654.9,30.9
2021-02-06T16:48:00Z,00000200,01000000,0000.22,-000.16,0000.23,0000.78,-000.13,-000.13,-000.17,-000.59,-000.00,15.8,22.7,,00.0,0654.9,30.9
2021-02-06T16:49:00Z,00000200,01000000,0000.54,-000.44,-000.00,0000.74,-000.02,-000.24,0000.13,0000.15,-000.04,15.7,22.7,,00.0,0654.9,30.9
2021-02-06T16:50:00Z,00000200,01000000,0000.06,-000.08,0000.14,0000.06,-000.25,0000.09,-000.45,0000.21,-000.07,15.7,22.7,,00.0,0654.9,30.9
2021-02-06T16:51:00Z,00000200,01000000,0000.34,-000.01,0000.09,0000.16,0000.19,-000.04,0000.67,-000.12,0000.28,15.7,22.7,,00.0,0654.9,30.8
2021-02-06T16:52:00Z,00000200,01000000,0000.26,0000.04,-000.10,-000.15,0000.11,-000.04,0000.02,0000.49,-000.23,15.6,22.7,,00.0,0654.9,30.9
2021-02-06T16:53:00Z,00000200,01000000,0000.80,0000.09,0000.08,0000.14,-000.25,0000.10,-000.04,-000.53,0000.09,15.6,22.6,,00.0,0654.9,30.9
2021-02-06T16:54:00Z,00000200,01000000,0001.13,-000.20,0000.29,0000.73,0000.05,0000.07,0000.02,0000.04,-000.03,15.5,22.6,,00.0,0654.9,30.9
2021-02-06T16:55:00Z,00000200,01000000,0000.64,0000.20,0000.17,-000.38,0000.06,-000.00,0000.25,-000.15,0000.06,15.5,22.6,,00.0,0654.9,30.8
2021-02-06T16:56:00Z,00000200,01000000,0000.30,-000.32,-000.27,0000.33,0000.16,-000.01,0000.06,0000.31,0000.13,15.5,22.5,,00.0,0654.9,30.8
2021-02-06T16:57:00Z,00000200,41000000,,,,,,,-000.19,0000.19,0000.13,15.5,22.5,,00.0,0654.9,30.8
2021-02-06T16:58:00Z,00000200,61000000,,,,,,,0000.33,-000.28,0000.09,15.0,22.7,,00.0,0654.0,30.8
2021-02-06T16:59:00Z,00000200,21000000,,,,,,,-000.81,-000.76,-000.33,15.0,22.8,,00.0,0654.0,30.8
